LEMUR-2-LIU-POU-CHUN (43054 NORAD) Tracking and Keplerian Element Data

This shows tracking and keplerian element data for the satellite.

Feedback or suggestion? Click here.




ElementValue
Catalog43054
NameLEMUR-2-LIU-POU-CHUN
Epoch Orbit1074
Epoch Day45.84612222
Epoch Year2018
RAAN276.8985
Inclination51.6389
Eccentricity0.0001252
Argument of Perigee95.3363
Mean Anonmoly264.7764
Mean Motion15.38596759
Decay Rate4.714E-05
L11 43054U 17071T 18045.84612222 .00004714 00000-0 13187-3 0 9996
L22 43054 51.6389 276.8985 0001252 95.3363 264.7764 15.38596759 10740

Live tracking and technical data element details for LEMUR-2-LIU-POU-CHUN (NORAD 43054). LEMUR-2-LIU-POU-CHUN can be tracked NOW for your location showing map with azimuth and elevation plus other details from your city location.

Track the satellite on the map from your city or location and see movement details for azimuth, elevation, latitude, longitude, range, height, and movement on the map or in text.







IsCatalogInMostPopularTable: catalog: 43054, numindb: 84
Update: records affected: 1



GetName: 43054 LEMUR-2-LIU-POU-CHUN

Hit Count: updated at: Thu, 19 Jul 2018 03:31:55 GMT